#Datum;Uhrzeit;WR;Pac;DaySum;Status;WR;Pac;DaySum;Status;Pdc1;Udc;Temp;WR;Pac;DaySum;Status;Pdc1;Udc;Temp;WR;Pac;DaySum;Status;Pdc1;Udc;Temp;WR;Pac;DaySum;Status;Pdc1;Pdc2;Udc1;Udc2;Temp;WR;Pac;DaySum;Status;Pdc1;Pdc2;Udc1;Udc2;Temp;WR;Pac;DaySum;Status;Pdc1;Udc;Temp;WR;Pac;DaySum;Status;Pdc1;Udc;Temp;WR;Pac;DaySum;Status;Pdc1;Udc;Temp
09.10.19;23:55:00;1;229;8851;0;2;0;3042;0;0;0;0;3;0;1847;0;0;0;0;4;0;2553;0;0;0;0;5;0;6486;0;0;0;0;0;0;6;0;4751;0;0;0;0;0;0;7;0;3143;0;0;0;0;8;0;3173;0;0;0;0;9;0;1665;0;0;0;0
09.10.19;23:50:00;1;295;8830;0;2;0;3042;0;0;0;0;3;0;1847;0;0;0;0;4;0;2553;0;0;0;0;5;0;6486;0;0;0;0;0;0;6;0;4751;0;0;0;0;0;0;7;0;3143;0;0;0;0;8;0;3173;0;0;0;0;9;0;1665;0;0;0;0
09.10.19;23:45:00;1;207;8810;0;2;0;3042;0;0;0;0;3;0;1847;0;0;0;0;4;0;2553;0;0;0;0;5;0;6486;0;0;0;0;0;0;6;0;4751;0;0;0;0;0;0;7;0;3143;0;0;0;0;8;0;3173;0;0;0;0;9;0;1665;0;0;0;0
09.10.19;23:40:00;1;225;8793;0;2;0;3042;0;0;0;0;3;0;1847;0;0;0;0;4;0;2553;0;0;0;0;5;0;6486;0;0;0;0;0;0;6;0;4751;0;0;0;0;0;0;7;0;3143;0;0;0;0;8;0;3173;0;0;0;0;9;0;1665;0;0;0;0
09.10.19;23:35:00;1;248;8774;0;2;0;3042;0;0;0;0;3;0;1847;0;0;0;0;4;0;2553;0;0;0;0;5;0;6486;0;0;0;0;0;0;6;0;4751;0;0;0;0;0;0;7;0;3143;0;0;0;0;8;0;3173;0;0;0;0;9;0;1665;0;0;0;0
09.10.19;23:30:00;1;251;8753;0;2;0;3042;0;0;0;0;3;0;1847;0;0;0;0;4;0;2553;0;0;0;0;5;0;6486;0;0;0;0;0;0;6;0;4751;0;0;0;0;0;0;7;0;3143;0;0;0;0;8;0;3173;0;0;0;0;9;0;1665;0;0;0;0
09.10.19;23:25:00;1;266;8732;0;2;0;3042;0;0;0;0;3;0;1847;0;0;0;0;4;0;2553;0;0;0;0;5;0;6486;0;0;0;0;0;0;6;0;4751;0;0;0;0;0;0;7;0;3143;0;0;0;0;8;0;3173;0;0;0;0;9;0;1665;0;0;0;0
09.10.19;23:20:00;1;261;8710;0;2;0;3042;0;0;0;0;3;0;1847;0;0;0;0;4;0;2553;0;0;0;0;5;0;6486;0;0;0;0;0;0;6;0;4751;0;0;0;0;0;0;7;0;3143;0;0;0;0;8;0;3173;0;0;0;0;9;0;1665;0;0;0;0
09.10.19;23:15:00;1;322;8688;0;2;0;3042;0;0;0;0;3;0;1847;0;0;0;0;4;0;2553;0;0;0;0;5;0;6486;0;0;0;0;0;0;6;0;4751;0;0;0;0;0;0;7;0;3143;0;0;0;0;8;0;3173;0;0;0;0;9;0;1665;0;0;0;0
09.10.19;23:10:00;1;320;8660;0;2;0;3042;0;0;0;0;3;0;1847;0;0;0;0;4;0;2553;0;0;0;0;5;0;6486;0;0;0;0;0;0;6;0;4751;0;0;0;0;0;0;7;0;3143;0;0;0;0;8;0;3173;0;0;0;0;9;0;1665;0;0;0;0
09.10.19;23:05:00;1;321;8633;0;2;0;3042;0;0;0;0;3;0;1847;0;0;0;0;4;0;2553;0;0;0;0;5;0;6486;0;0;0;0;0;0;6;0;4751;0;0;0;0;0;0;7;0;3143;0;0;0;0;8;0;3173;0;0;0;0;9;0;1665;0;0;0;0
09.10.19;23:00:00;1;328;8606;0;2;0;3042;0;0;0;0;3;0;1847;0;0;0;0;4;0;2553;0;0;0;0;5;0;6486;0;0;0;0;0;0;6;0;4751;0;0;0;0;0;0;7;0;3143;0;0;0;0;8;0;3173;0;0;0;0;9;0;1665;0;0;0;0
09.10.19;22:55:00;1;326;8579;0;2;0;3042;0;0;0;0;3;0;1847;0;0;0;0;4;0;2553;0;0;0;0;5;0;6486;2;0;0;0;0;0;6;0;4751;2;0;0;0;0;0;7;0;3143;0;0;0;0;8;0;3173;0;0;0;0;9;0;1665;0;0;0;0
09.10.19;22:50:00;1;305;8551;0;2;0;3042;0;0;0;0;3;0;1847;0;0;0;0;4;0;2553;0;0;0;0;5;0;6486;2;0;0;0;0;0;6;0;4751;2;0;0;0;0;0;7;0;3143;0;0;0;0;8;0;3173;0;0;0;0;9;0;1665;0;0;0;0
09.10.19;22:45:00;1;320;8526;0;2;0;3042;0;0;0;0;3;0;1847;0;0;0;0;4;0;2553;0;0;0;0;5;0;6486;2;0;0;0;0;0;6;0;4751;2;0;0;0;0;0;7;0;3143;0;0;0;0;8;0;3173;0;0;0;0;9;0;1665;0;0;0;0
09.10.19;22:40:00;1;371;8499;0;2;0;3042;0;0;0;0;3;0;1847;0;0;0;0;4;0;2553;0;0;0;0;5;0;6486;2;0;0;0;0;0;6;0;4751;2;0;0;0;0;0;7;0;3143;0;0;0;0;8;0;3173;0;0;0;0;9;0;1665;0;0;0;0
09.10.19;22:35:00;1;343;8467;0;2;0;3042;0;0;0;0;3;0;1847;0;0;0;0;4;0;2553;0;0;0;0;5;0;6486;2;0;0;0;0;0;6;0;4751;2;0;0;0;0;0;7;0;3143;0;0;0;0;8;0;3173;0;0;0;0;9;0;1665;0;0;0;0
09.10.19;22:30:00;1;214;8442;0;2;0;3042;0;0;0;0;3;0;1847;0;0;0;0;4;0;2553;0;0;0;0;5;0;6486;2;0;0;0;0;0;6;0;4751;2;0;0;0;0;0;7;0;3143;0;0;0;0;8;0;3173;0;0;0;0;9;0;1665;0;0;0;0
09.10.19;22:25:00;1;213;8424;0;2;0;3042;0;0;0;0;3;0;1847;0;0;0;0;4;0;2553;0;0;0;0;5;0;6486;2;0;0;0;0;0;6;0;4751;2;0;0;0;0;0;7;0;3143;0;0;0;0;8;0;3173;0;0;0;0;9;0;1665;0;0;0;0
09.10.19;22:20:00;1;213;8406;0;2;0;3042;0;0;0;0;3;0;1847;0;0;0;0;4;0;2553;0;0;0;0;5;0;6486;2;0;0;0;0;0;6;0;4751;2;0;0;0;0;0;7;0;3143;0;0;0;0;8;0;3173;0;0;0;0;9;0;1665;0;0;0;0
09.10.19;22:15:00;1;213;8389;0;2;0;3042;0;0;0;0;3;0;1847;0;0;0;0;4;0;2553;0;0;0;0;5;0;6486;2;0;0;0;0;0;6;0;4751;2;0;0;0;0;0;7;0;3143;0;0;0;0;8;0;3173;0;0;0;0;9;0;1665;0;0;0;0
09.10.19;22:10:00;1;215;8371;0;2;0;3042;0;0;0;0;3;0;1847;0;0;0;0;4;0;2553;0;0;0;0;5;0;6486;2;0;0;0;0;0;6;0;4751;2;0;0;0;0;0;7;0;3143;0;0;0;0;8;0;3173;0;0;0;0;9;0;1665;0;0;0;0
09.10.19;22:05:00;1;305;8352;0;2;0;3042;0;0;0;0;3;0;1847;0;0;0;0;4;0;2553;0;0;0;0;5;0;6486;2;0;0;0;0;0;6;0;4751;2;0;0;0;0;0;7;0;3143;0;0;0;0;8;0;3173;0;0;0;0;9;0;1665;0;0;0;0
09.10.19;22:00:00;1;311;8326;0;2;0;3042;0;0;0;0;3;0;1847;0;0;0;0;4;0;2553;0;0;0;0;5;0;6486;2;0;0;0;0;0;6;0;4751;2;0;0;0;0;0;7;0;3143;0;0;0;0;8;0;3173;0;0;0;0;9;0;1665;0;0;0;0
09.10.19;21:55:00;1;432;8299;0;2;0;3042;0;0;0;0;3;0;1847;0;0;0;0;4;0;2553;0;0;0;0;5;0;6486;2;0;0;0;0;0;6;0;4751;2;0;0;0;0;0;7;0;3143;0;0;0;0;8;0;3173;0;0;0;0;9;0;1665;0;0;0;0
09.10.19;21:50:00;1;592;8261;0;2;0;3042;0;0;0;0;3;0;1847;0;0;0;0;4;0;2553;0;0;0;0;5;0;6486;2;0;0;0;0;0;6;0;4751;2;0;0;0;0;0;7;0;3143;0;0;0;0;8;0;3173;0;0;0;0;9;0;1665;0;0;0;0
09.10.19;21:45:00;1;570;8209;0;2;0;3042;0;0;0;0;3;0;1847;0;0;0;0;4;0;2553;0;0;0;0;5;0;6486;2;0;0;0;0;0;6;0;4751;2;0;0;0;0;0;7;0;3143;0;0;0;0;8;0;3173;0;0;0;0;9;0;1665;0;0;0;0
09.10.19;21:40:00;1;1323;8161;0;2;0;3042;0;0;0;0;3;0;1847;0;0;0;0;4;0;2553;0;0;0;0;5;0;6486;2;0;0;0;0;0;6;0;4751;2;0;0;0;0;0;7;0;3143;0;0;0;0;8;0;3173;0;0;0;0;9;0;1665;0;0;0;0
09.10.19;21:35:00;1;948;8052;0;2;0;3042;0;0;0;0;3;0;1847;0;0;0;0;4;0;2553;0;0;0;0;5;0;6486;2;0;0;0;0;0;6;0;4751;2;0;0;0;0;0;7;0;3143;0;0;0;0;8;0;3173;0;0;0;0;9;0;1665;0;0;0;0
09.10.19;21:30:00;1;563;7998;0;2;0;3042;0;0;0;0;3;0;1847;0;0;0;0;4;0;2553;0;0;0;0;5;0;6486;2;0;0;0;0;0;6;0;4751;2;0;0;0;0;0;7;0;3143;0;0;0;0;8;0;3173;0;0;0;0;9;0;1665;0;0;0;0
09.10.19;21:25:00;1;608;7950;0;2;0;3042;0;0;0;0;3;0;1847;0;0;0;0;4;0;2553;0;0;0;0;5;0;6486;2;0;0;0;0;0;6;0;4751;2;0;0;0;0;0;7;0;3143;0;0;0;0;8;0;3173;0;0;0;0;9;0;1665;0;0;0;0
09.10.19;21:20:00;1;561;7900;0;2;0;3042;0;0;0;0;3;0;1847;0;0;0;0;4;0;2553;0;0;0;0;5;0;6486;2;0;0;0;0;0;6;0;4751;2;0;0;0;0;0;7;0;3143;0;0;0;0;8;0;3173;0;0;0;0;9;0;1665;0;0;0;0
09.10.19;21:15:00;1;548;7853;0;2;0;3042;0;0;0;0;3;0;1847;0;0;0;0;4;0;2553;0;0;0;0;5;0;6486;2;0;0;0;0;0;6;0;4751;2;0;0;0;0;0;7;0;3143;0;0;0;0;8;0;3173;0;0;0;0;9;0;1665;0;0;0;0
09.10.19;21:10:00;1;606;7807;0;2;0;3042;0;0;0;0;3;0;1847;0;0;0;0;4;0;2553;0;0;0;0;5;0;6486;2;0;0;0;0;0;6;0;4751;2;0;0;0;0;0;7;0;3143;0;0;0;0;8;0;3173;0;0;0;0;9;0;1665;0;0;0;0
09.10.19;21:05:00;1;659;7755;0;2;0;3042;0;0;0;0;3;0;1847;0;0;0;0;4;0;2553;0;0;0;0;5;0;6486;2;0;0;0;0;0;6;0;4751;2;0;0;0;0;0;7;0;3143;0;0;0;0;8;0;3173;0;0;0;0;9;0;1665;0;0;0;0
09.10.19;21:00:00;1;660;7700;0;2;0;3042;0;0;0;0;3;0;1847;0;0;0;0;4;0;2553;0;0;0;0;5;0;6486;2;0;0;0;0;0;6;0;4751;2;0;0;0;0;0;7;0;3143;0;0;0;0;8;0;3173;0;0;0;0;9;0;1665;0;0;0;0
09.10.19;20:55:00;1;615;7644;0;2;0;3042;0;0;0;0;3;0;1847;0;0;0;0;4;0;2553;0;0;0;0;5;0;6486;2;0;0;0;0;0;6;0;4751;2;0;0;0;0;0;7;0;3143;0;0;0;0;8;0;3173;0;0;0;0;9;0;1665;0;0;0;0
09.10.19;20:50:00;1;666;7592;0;2;0;3042;0;0;0;0;3;0;1847;0;0;0;0;4;0;2553;0;0;0;0;5;0;6486;2;0;0;0;0;0;6;0;4751;2;0;0;0;0;0;7;0;3143;0;0;0;0;8;0;3173;0;0;0;0;9;0;1665;0;0;0;0
09.10.19;20:45:00;1;642;7536;0;2;0;3042;0;0;0;0;3;0;1847;0;0;0;0;4;0;2553;0;0;0;0;5;0;6486;2;0;0;0;0;0;6;0;4751;2;0;0;0;0;0;7;0;3143;0;0;0;0;8;0;3173;0;0;0;0;9;0;1665;0;0;0;0
09.10.19;20:40:00;1;610;7483;0;2;0;3042;0;0;0;0;3;0;1847;0;0;0;0;4;0;2553;0;0;0;0;5;0;6486;2;0;0;0;0;0;6;0;4751;2;0;0;0;0;0;7;0;3143;0;0;0;0;8;0;3173;0;0;0;0;9;0;1665;0;0;0;0
09.10.19;20:35:00;1;616;7432;0;2;0;3042;0;0;0;0;3;0;1847;0;0;0;0;4;0;2553;0;0;0;0;5;0;6486;2;0;0;0;0;0;6;0;4751;2;0;0;0;0;0;7;0;3143;0;0;0;0;8;0;3173;0;0;0;0;9;0;1665;0;0;0;0
09.10.19;20:30:00;1;549;7381;0;2;0;3042;0;0;0;0;3;0;1847;0;0;0;0;4;0;2553;0;0;0;0;5;0;6486;2;0;0;0;0;0;6;0;4751;2;0;0;0;0;0;7;0;3143;0;0;0;0;8;0;3173;0;0;0;0;9;0;1665;0;0;0;0
09.10.19;20:25:00;1;552;7334;0;2;0;3042;0;0;0;0;3;0;1847;0;0;0;0;4;0;2553;0;0;0;0;5;0;6486;2;0;0;0;0;0;6;0;4751;2;0;0;0;0;0;7;0;3143;0;0;0;0;8;0;3173;0;0;0;0;9;0;1665;0;0;0;0
09.10.19;20:20:00;1;514;7288;0;2;0;3042;0;0;0;0;3;0;1847;0;0;0;0;4;0;2553;0;0;0;0;5;0;6486;2;0;0;0;0;0;6;0;4751;2;0;0;0;0;0;7;0;3143;0;0;0;0;8;0;3173;0;0;0;0;9;0;1665;0;0;0;0
09.10.19;20:15:00;1;536;7244;0;2;0;3042;0;0;0;0;3;0;1847;0;0;0;0;4;0;2553;0;0;0;0;5;0;6486;2;0;0;0;0;0;6;0;4751;2;0;0;0;0;0;7;0;3143;0;0;0;0;8;0;3173;0;0;0;0;9;0;1665;0;0;0;0
09.10.19;20:10:00;1;605;7197;0;2;0;3042;0;0;0;0;3;0;1847;0;0;0;0;4;0;2553;0;0;0;0;5;0;6486;2;0;0;0;0;0;6;0;4751;2;0;0;0;0;0;7;0;3143;0;0;0;0;8;0;3173;0;0;0;0;9;0;1665;0;0;0;0
09.10.19;20:05:00;1;536;7145;0;2;0;3042;0;0;0;0;3;0;1847;0;0;0;0;4;0;2553;0;0;0;0;5;0;6486;2;0;0;0;0;0;6;0;4751;2;0;0;0;0;0;7;0;3143;0;0;0;0;8;0;3173;0;0;0;0;9;0;1665;0;0;0;0
09.10.19;20:00:00;1;452;7102;0;2;0;3042;0;0;0;0;3;0;1847;0;0;0;0;4;0;2553;0;0;0;0;5;0;6486;2;0;0;0;0;0;6;0;4751;2;0;0;0;0;0;7;0;3143;0;0;0;0;8;0;3173;0;0;0;0;9;0;1665;0;0;0;0
09.10.19;19:55:00;1;501;7063;0;2;0;3042;0;0;0;0;3;0;1847;0;0;0;0;4;0;2553;0;0;0;0;5;0;6486;2;0;0;0;0;0;6;0;4751;2;0;0;0;0;0;7;0;3143;0;0;0;0;8;0;3173;0;0;0;0;9;0;1665;0;0;0;0
09.10.19;19:50:00;1;563;7021;0;2;0;3042;0;0;0;0;3;0;1847;0;0;0;0;4;0;2553;0;0;0;0;5;0;6486;2;0;0;0;0;0;6;0;4751;2;0;0;0;0;0;7;0;3143;0;0;0;0;8;0;3173;0;0;0;0;9;0;1665;0;0;0;0
09.10.19;19:45:00;1;582;6975;0;2;0;3042;0;0;0;0;3;0;1847;0;0;0;0;4;0;2553;0;0;0;0;5;0;6486;2;0;0;0;0;0;6;0;4751;2;0;0;0;0;0;7;0;3143;0;0;0;0;8;0;3173;0;0;0;0;9;0;1665;0;0;0;0
09.10.19;19:40:00;1;659;6924;0;2;0;3042;0;0;0;0;3;0;1847;0;0;0;0;4;0;2553;0;0;0;0;5;0;6486;2;0;0;0;0;0;6;0;4751;2;0;0;0;0;0;7;0;3143;0;0;0;0;8;0;3173;0;0;0;0;9;0;1665;0;0;0;0
09.10.19;19:35:00;1;661;6872;0;2;0;3042;0;0;0;0;3;0;1847;0;0;0;0;4;0;2553;0;0;0;0;5;0;6486;2;0;0;0;0;0;6;0;4751;2;0;0;0;0;0;7;0;3143;0;0;0;0;8;0;3173;0;0;0;0;9;0;1665;0;0;0;0
09.10.19;19:30:00;1;955;6818;0;2;0;3042;0;0;0;0;3;0;1847;0;0;0;0;4;0;2553;0;0;0;0;5;0;6486;2;0;0;0;0;0;6;0;4751;2;0;0;0;0;0;7;0;3143;0;0;0;0;8;0;3173;0;0;0;0;9;0;1665;0;0;0;0
09.10.19;19:25:00;1;616;6749;0;2;0;3042;0;0;0;0;3;0;1847;0;0;0;0;4;0;2553;0;0;0;0;5;0;6486;2;0;0;0;0;0;6;0;4751;2;0;0;0;0;0;7;0;3143;0;0;0;0;8;0;3173;0;0;0;0;9;0;1665;0;0;0;0
09.10.19;19:20:00;1;618;6699;0;2;0;3042;0;0;0;0;3;0;1847;0;0;0;0;4;0;2553;0;0;0;0;5;0;6486;2;0;0;0;0;0;6;0;4751;2;0;0;0;0;0;7;0;3143;0;0;0;0;8;0;3173;0;0;0;0;9;0;1665;0;0;0;0
09.10.19;19:15:00;1;561;6647;0;2;0;3042;0;0;0;0;3;0;1847;0;0;0;0;4;0;2553;0;0;0;0;5;0;6486;2;0;0;0;0;0;6;0;4751;2;0;0;0;0;0;7;0;3143;0;0;0;0;8;0;3173;0;0;0;0;9;0;1665;0;0;0;0
09.10.19;19:10:00;1;502;6604;0;2;0;3042;0;0;0;0;3;0;1847;0;0;0;0;4;0;2553;0;0;0;0;5;0;6486;2;0;0;0;0;0;6;0;4751;2;0;0;0;0;0;7;0;3143;0;0;0;0;8;0;3173;0;0;0;0;9;0;1665;0;0;0;0
09.10.19;19:05:00;1;553;6563;0;2;0;3042;0;0;0;0;3;0;1847;0;0;0;0;4;0;2553;0;0;0;0;5;0;6486;2;0;0;0;0;0;6;0;4751;2;0;0;0;0;0;7;0;3143;0;0;0;0;8;0;3173;0;0;0;0;9;0;1665;0;0;0;0
09.10.19;19:00:00;1;666;6505;0;2;0;3042;0;0;0;0;3;0;1847;0;0;0;0;4;0;2553;0;0;0;0;5;0;6486;2;0;0;0;0;0;6;0;4751;2;0;0;0;0;0;7;0;3143;0;0;0;0;8;0;3173;0;0;0;0;9;0;1665;0;0;0;0
09.10.19;18:55:00;1;538;6451;0;2;0;3042;0;0;0;0;3;0;1847;0;0;0;0;4;0;2553;0;0;0;0;5;0;6486;2;0;0;0;0;0;6;0;4751;2;0;0;0;0;0;7;0;3143;0;0;0;0;8;0;3173;0;0;0;0;9;0;1665;0;0;0;0
09.10.19;18:50:00;1;543;6406;0;2;0;3042;0;0;0;0;3;0;1847;0;0;0;0;4;0;2553;0;0;0;0;5;0;6486;2;0;0;0;0;0;6;0;4751;2;0;0;0;0;0;7;0;3143;0;0;0;0;8;0;3173;0;0;0;0;9;0;1665;0;0;0;0
09.10.19;18:45:00;1;1892;6361;0;2;0;3042;0;0;0;0;3;0;1847;0;0;0;0;4;0;2553;0;0;0;0;5;0;6486;2;0;0;0;0;0;6;0;4751;2;0;0;0;0;0;7;0;3143;0;0;0;0;8;0;3173;0;0;0;0;9;0;1665;0;0;0;0
09.10.19;18:40:00;1;1193;6162;0;2;0;3042;0;0;0;0;3;0;1847;0;0;0;0;4;0;2553;0;0;0;0;5;0;6486;2;0;0;0;0;0;6;0;4751;2;0;0;0;0;0;7;0;3143;0;0;0;0;8;0;3173;0;0;0;0;9;0;1665;0;0;0;0
09.10.19;18:35:00;1;535;6045;0;2;0;3042;0;0;0;0;3;0;1847;0;0;83;6;4;0;2553;0;0;0;0;5;0;6486;2;0;0;0;0;0;6;0;4751;2;0;0;0;0;0;7;0;3143;0;0;0;0;8;0;3173;0;0;0;0;9;0;1665;0;0;0;0
09.10.19;18:30:00;1;1432;6001;0;2;0;3042;0;0;172;10;3;0;1847;6;0;290;19;4;0;2553;0;0;34;8;5;0;6486;2;0;0;0;0;0;6;0;4751;1;0;0;0;0;0;7;0;3143;0;0;0;0;8;0;3173;0;0;0;0;9;0;1665;0;0;0;0
09.10.19;18:25:00;1;1490;5880;0;2;0;3042;6;0;279;16;3;0;1847;6;0;312;19;4;0;2553;2;0;83;17;5;0;6486;2;0;0;0;0;0;6;0;4751;0;0;0;0;0;1;7;0;3143;0;0;0;0;8;0;3173;0;0;0;0;9;0;1665;0;0;0;0
09.10.19;18:20:00;1;489;5768;0;2;0;3042;6;0;286;17;3;0;1847;6;0;325;19;4;0;2553;1;0;87;17;5;0;6486;2;0;0;0;0;0;6;0;4751;1;0;0;0;0;2;7;0;3143;0;0;0;0;8;0;3173;0;0;0;0;9;0;1665;0;0;0;0
09.10.19;18:15:00;1;508;5727;0;2;0;3042;6;0;304;17;3;0;1847;6;0;366;19;4;0;2553;1;0;107;17;5;0;6486;1;0;2;212;210;23;6;0;4751;0;0;0;0;0;7;7;0;3143;0;0;0;0;8;0;3173;0;0;0;0;9;0;1665;0;0;41;2
09.10.19;18:10:00;1;382;5686;0;2;0;3042;6;0;322;17;3;0;1847;6;0;398;19;4;0;2553;1;0;128;18;5;0;6486;1;0;0;323;337;28;6;0;4751;23;8;1;244;346;27;7;0;3143;0;0;171;14;8;0;3173;0;0;216;16;9;0;1665;6;0;280;16
09.10.19;18:05:00;1;287;5654;0;2;0;3042;6;0;341;17;3;0;1847;6;2;411;20;4;0;2553;1;0;154;18;5;0;6486;26;0;1;373;371;28;6;0;4751;23;9;1;181;495;27;7;0;3143;6;0;299;21;8;0;3173;6;0;304;20;9;0;1665;6;0;319;16
09.10.19;18:00:00;1;248;5630;0;2;0;3042;6;0;361;17;3;0;1847;6;1;428;20;4;0;2553;1;0;187;18;5;6;6486;1;0;2;390;593;28;6;0;4751;23;10;1;181;532;27;7;0;3143;6;0;357;21;8;0;3173;6;0;363;20;9;0;1665;6;0;387;16
09.10.19;17:55:00;1;285;5609;0;2;0;3042;6;0;363;17;3;0;1847;6;2;440;20;4;0;2553;1;0;190;18;5;15;6485;1;0;3;384;574;29;6;0;4751;23;11;1;181;537;27;7;0;3143;6;0;367;21;8;0;3173;6;0;375;20;9;0;1665;6;0;402;16
09.10.19;17:50:00;1;350;5585;0;2;0;3042;6;0;350;17;3;0;1847;6;1;427;20;4;0;2553;1;0;169;18;5;0;6484;26;0;1;385;430;29;6;0;4751;23;10;1;214;517;28;7;0;3143;6;0;337;21;8;0;3173;6;0;345;21;9;0;1665;6;0;367;16
09.10.19;17:45:00;1;317;5556;0;2;0;3042;6;0;356;17;3;0;1847;6;0;440;20;4;0;2553;1;0;179;19;5;0;6484;26;0;0;397;572;29;6;0;4751;23;5;3;405;316;28;7;0;3143;6;0;341;21;8;0;3173;6;0;348;21;9;0;1665;6;0;369;16
09.10.19;17:40:00;1;243;5529;0;2;0;3042;6;0;374;17;3;0;1847;3;4;438;20;4;0;2553;1;0;194;19;5;7;6484;23;0;2;397;617;29;6;0;4751;23;6;3;375;369;28;7;0;3143;6;0;386;21;8;0;3173;6;0;391;21;9;0;1665;6;0;406;17
09.10.19;17:35:00;1;240;5509;0;2;0;3042;6;0;369;17;3;1;1847;6;2;448;20;4;0;2553;1;0;200;19;5;5;6483;4;0;0;399;623;30;6;0;4751;23;11;1;182;545;29;7;0;3143;6;0;309;17;8;0;3173;6;0;394;21;9;0;1665;6;0;428;17
09.10.19;17:30:00;1;240;5488;0;2;0;3042;6;0;377;17;3;1;1847;6;2;458;20;4;0;2553;1;0;209;20;5;6;6483;4;0;0;402;631;30;6;0;4751;23;7;1;274;554;29;7;0;3143;6;0;398;22;8;0;3173;6;0;402;21;9;0;1665;6;0;425;17
09.10.19;17:25:00;1;240;5468;0;2;0;3042;6;0;395;18;3;2;1847;6;5;481;20;4;0;2553;3;0;212;20;5;76;6482;4;6;21;358;569;31;6;0;4751;23;9;0;510;573;30;7;0;3143;4;2;434;22;8;0;3173;4;1;435;21;9;0;1665;4;1;474;17
09.10.19;17:20:00;1;263;5448;0;2;0;3042;6;0;401;18;3;2;1847;6;4;474;20;4;0;2553;3;0;204;20;5;92;6475;4;16;28;358;569;31;6;61;4750;4;36;33;456;436;31;7;1;3143;6;8;423;22;8;1;3173;3;5;421;21;9;2;1665;6;6;465;17
09.10.19;17:15:00;1;825;5417;0;2;18;3042;4;28;395;18;3;0;1847;6;0;538;20;4;15;2552;3;15;199;20;5;149;6467;4;47;58;359;569;31;6;100;4745;4;51;52;456;436;31;7;7;3143;6;11;470;22;8;6;3173;6;11;469;22;9;3;1665;6;6;519;17
09.10.19;17:10:00;1;649;5323;0;2;46;3040;6;69;365;18;3;7;1847;4;18;496;20;4;32;2551;3;33;199;20;5;166;6455;4;57;64;359;569;31;6;111;4736;4;49;49;456;436;31;7;22;3142;6;34;422;22;8;20;3172;6;34;427;22;9;3;1665;6;6;525;17
09.10.19;17:05:00;1;1989;5242;0;2;26;3036;4;36;397;18;3;3;1846;6;9;516;20;4;31;2549;3;33;199;20;5;171;6441;4;60;66;359;569;31;6;116;4727;4;59;59;456;437;31;7;11;3140;4;14;473;22;8;8;3171;4;14;477;22;9;5;1664;6;9;524;17
09.10.19;17:00:00;1;1669;5091;0;2;14;3034;6;23;393;18;3;6;1846;6;15;485;20;4;8;2546;3;8;199;21;5;135;6427;4;40;49;359;569;31;6;89;4717;4;52;50;456;436;31;7;7;3139;3;14;446;22;8;11;3170;6;16;446;22;9;0;1664;6;3;515;17
09.10.19;16:55:00;1;373;4978;0;2;53;3033;4;79;360;18;3;5;1845;6;11;515;20;4;16;2546;3;17;199;21;5;167;6416;4;58;62;359;569;31;6;111;4710;4;51;51;456;436;31;7;15;3138;6;26;437;23;8;17;3169;6;25;441;22;9;2;1664;4;6;521;18
09.10.19;16:50:00;1;373;4945;0;2;55;3028;4;78;369;18;3;5;1845;6;10;524;20;4;26;2544;3;27;199;21;5;182;6402;4;72;70;359;569;31;6;124;4700;4;63;63;456;436;31;7;45;3137;4;71;354;23;8;48;3167;4;73;359;22;9;6;1664;3;14;504;18
09.10.19;16:45:00;1;334;4914;0;2;0;3024;6;0;414;18;3;2;1844;6;8;504;21;4;7;2542;3;7;199;21;5;130;6387;4;39;47;358;569;31;6;90;4690;4;54;52;456;437;31;7;3;3133;6;8;463;23;8;10;3163;3;20;440;22;9;0;1663;6;5;511;18
09.10.19;16:40:00;1;1244;4862;0;2;22;3024;6;35;383;19;3;5;1844;4;14;484;21;4;7;2541;3;7;199;21;5;137;6376;4;43;52;359;569;31;6;92;4683;4;48;47;456;436;31;7;5;3133;6;7;467;23;8;5;3162;6;7;468;23;9;2;1663;6;4;516;18
09.10.19;16:35:00;1;1390;4758;0;2;64;3022;4;94;354;19;3;9;1844;3;14;511;21;4;33;2541;3;35;198;21;5;188;6364;4;68;74;359;569;31;6;126;4675;4;69;70;456;437;31;7;22;3133;6;40;437;23;8;25;3162;6;46;437;23;9;6;1663;6;13;494;18
09.10.19;16:30:00;1;316;4673;0;2;74;3017;4;103;362;19;3;16;1843;4;26;500;21;4;42;2538;3;43;198;21;5;208;6348;4;85;85;359;569;31;6;142;4664;4;60;60;455;436;31;7;61;3131;4;92;391;23;8;62;3160;4;93;400;23;9;6;1662;6;10;539;18
09.10.19;16:25:00;1;315;4647;0;2;72;3010;4;100;361;19;3;14;1841;3;26;489;21;4;36;2534;3;38;198;21;5;199;6331;4;81;80;359;569;31;6;138;4652;4;68;68;456;436;31;7;40;3126;4;67;322;18;8;44;3155;4;79;406;23;9;4;1662;4;7;525;18
09.10.19;16:20:00;1;290;4621;0;2;87;3004;4;115;358;19;3;7;1840;6;13;531;21;4;49;2531;3;50;197;21;5;226;6314;4;93;96;359;569;31;6;154;4641;4;80;78;456;436;31;7;62;3121;4;100;416;23;8;66;3151;4;102;427;23;9;12;1661;3;19;518;18
09.10.19;16:15:00;1;311;4596;0;2;86;2997;4;113;356;19;3;21;1839;6;32;494;22;4;52;2527;3;54;198;21;5;229;6296;4;99;94;359;569;31;6;156;4628;4;78;76;456;436;31;7;73;3116;4;99;399;23;8;70;3145;4;102;404;23;9;15;1660;6;24;503;18
09.10.19;16:10:00;1;313;4570;0;2;126;2990;4;158;360;19;3;70;1837;4;106;468;22;4;86;2523;3;89;208;21;5;309;6276;4;138;129;359;569;31;6;208;4614;4;108;99;456;436;31;7;103;3110;4;141;438;23;8;111;3139;4;147;432;23;9;34;1659;6;47;520;19
09.10.19;16:05:00;1;441;4543;0;2;147;2979;4;177;365;19;3;84;1831;4;120;477;22;4;105;2516;3;109;216;21;5;343;6250;4;159;147;359;569;31;6;233;4597;4;123;119;455;436;31;7;118;3102;4;161;451;23;8;127;3130;4;168;443;23;9;72;1656;4;98;473;19
09.10.19;16:00:00;1;298;4518;0;2;124;2967;4;155;361;19;3;67;1824;4;107;483;22;4;85;2507;5;88;203;21;5;303;6222;4;132;127;359;569;31;6;206;4577;4;113;107;456;436;31;7;112;3092;4;146;450;23;8;107;3120;4;141;465;23;9;33;1650;4;47;508;19
09.10.19;15:55:00;1;212;4493;0;2;153;2957;4;185;363;20;3;86;1819;4;126;486;22;4;113;2500;3;118;213;21;5;354;6197;4;169;149;359;569;31;6;239;4560;4;120;118;456;436;31;7;132;3082;4;169;443;23;8;134;3111;4;173;425;23;9;62;1647;6;81;480;19
09.10.19;15:50:00;1;260;4475;0;2;135;2944;4;165;365;20;3;77;1812;4;113;462;22;4;91;2490;3;95;206;21;5;322;6167;4;152;131;359;569;31;6;220;4540;4;111;109;456;436;31;7;130;3072;4;162;433;24;8;129;3100;4;163;443;23;9;70;1642;4;94;441;19
09.10.19;15:45:00;1;257;4453;0;2;135;2933;4;165;358;20;3;75;1805;4;111;475;22;4;89;2483;3;92;203;21;5;312;6141;4;140;134;358;569;31;6;212;4522;4;117;114;456;436;31;7;112;3061;4;142;429;24;8;109;3089;4;144;420;23;9;28;1637;6;38;536;19
09.10.19;15:40:00;1;203;4432;0;2;198;2922;4;229;362;20;3;115;1799;4;155;492;22;4;152;2475;5;158;222;21;5;434;6114;4;208;185;377;569;31;6;287;4504;4;153;150;456;436;31;7;180;3051;4;214;442;24;8;180;3080;4;218;437;23;9;96;1634;4;122;484;20
09.10.19;15:35:00;1;203;4415;0;2;190;2905;4;223;367;20;3;112;1789;4;151;491;22;4;150;2463;5;156;222;22;5;400;6077;4;194;172;367;569;31;6;274;4480;4;140;138;456;436;31;7;192;3036;4;218;448;24;8;191;3065;4;225;451;23;9;103;1626;4;130;488;20
09.10.19;15:30:00;1;226;4398;0;2;230;2889;4;264;373;20;3;137;1780;4;176;487;22;4;183;2450;5;190;222;22;5;503;6045;4;241;214;386;608;31;6;369;4457;4;192;193;542;518;31;7;202;3020;4;243;445;24;8;209;3049;4;241;444;23;9;111;1617;4;138;489;20
09.10.19;15:25:00;1;289;4379;0;2;261;2870;4;295;383;20;3;161;1769;4;200;490;22;4;216;2435;5;225;226;22;5;557;6001;4;267;240;390;589;31;6;372;4425;4;192;185;466;439;31;7;289;3004;4;320;470;24;8;287;3031;4;326;465;23;9;159;1608;4;188;511;19
09.10.19;15:20:00;1;276;4354;0;2;133;2848;4;163;368;20;3;75;1755;4;112;460;22;4;93;2417;5;97;203;22;5;308;5957;4;137;127;359;569;31;6;212;4396;4;108;103;456;436;31;7;124;2980;4;160;417;24;8;121;3008;4;160;426;23;9;15;1595;4;19;556;19
09.10.19;15:15:00;1;221;4332;0;2;157;2837;4;188;365;20;3;90;1749;4;127;482;22;4;113;2409;3;117;216;22;5;344;5931;4;159;144;359;569;31;6;236;4379;4;123;123;455;436;31;7;130;2969;4;171;433;24;8;141;2997;4;174;431;23;9;74;1593;4;101;453;20
09.10.19;15:10:00;1;202;4313;0;2;195;2824;4;230;366;20;3;114;1741;4;153;496;22;4;152;2399;5;159;222;22;5;431;5902;4;201;186;376;606;31;6;281;4359;4;146;141;456;436;31;7;177;2959;4;222;425;24;8;187;2986;4;224;424;23;9;100;1587;4;127;480;20
09.10.19;15:05:00;1;202;4296;0;2;229;2808;4;262;371;20;3;138;1732;4;176;496;23;4;184;2387;5;192;222;22;5;506;5866;4;245;217;389;602;31;6;325;4335;4;164;159;456;436;31;7;222;2944;4;258;459;24;8;230;2970;4;267;441;23;9;119;1579;4;151;506;20
09.10.19;15:00:00;1;202;4279;0;2;272;2789;4;304;373;20;3;162;1720;4;204;504;23;4;222;2371;5;231;226;22;5;579;5823;4;276;246;391;626;31;6;370;4307;4;192;183;456;436;31;7;261;2925;4;298;470;24;8;262;2951;4;307;470;23;9;143;1569;4;175;511;20
09.10.19;14:55:00;1;201;4262;0;2;232;2766;4;266;370;20;3;140;1707;4;181;499;23;4;190;2353;5;198;224;22;5;482;5775;4;232;205;377;588;31;6;321;4277;4;154;144;456;437;31;7;234;2904;4;265;466;24;8;238;2929;4;277;448;23;9;128;1557;4;157;501;20
09.10.19;14:50:00;1;224;4246;0;2;209;2747;4;239;365;21;3;119;1695;4;159;503;23;4;166;2337;5;173;223;22;5;457;5736;4;222;192;385;569;31;6;300;4250;4;134;129;456;436;31;7;195;2884;4;240;435;24;8;202;2909;4;241;443;23;9;109;1546;4;136;496;20
09.10.19;14:45:00;1;244;4226;0;2;212;2730;4;244;368;21;3;123;1685;4;163;501;23;4;166;2323;5;172;226;22;5;452;5697;4;209;199;364;569;31;6;307;4225;4;163;155;456;436;31;7;210;2868;4;251;441;24;8;208;2893;4;249;462;24;9;117;1537;4;143;501;20
09.10.19;14:40:00;1;244;4206;0;2;186;2712;4;216;365;21;3;111;1675;4;148;484;23;4;140;2309;5;146;223;22;5;398;5659;4;180;173;359;569;31;6;270;4199;4;128;126;455;436;31;7;173;2850;4;214;433;24;8;182;2875;4;221;443;24;9;100;1528;4;129;485;20
09.10.19;14:35:00;1;245;4186;0;2;188;2696;4;219;368;21;3;111;1666;4;149;470;23;4;140;2298;5;146;220;22;5;401;5626;4;188;172;359;569;31;6;270;4177;4;130;124;456;436;31;7;164;2836;4;197;417;24;8;167;2860;4;202;424;24;9;89;1519;4;115;482;20
09.10.19;14:30:00;1;247;4165;0;2;214;2681;4;249;369;21;3;130;1656;4;166;492;23;4;167;2286;5;174;224;22;5;433;5593;4;198;186;359;569;31;6;296;4154;4;147;145;456;436;31;7;190;2822;4;229;454;24;8;198;2846;4;236;450;24;9;107;1512;4;136;489;20
09.10.19;14:25:00;1;212;4145;0;2;156;2663;4;187;369;21;3;92;1645;4;128;482;23;4;114;2272;5;119;222;23;5;340;5557;4;155;138;359;569;31;6;231;4129;4;114;107;456;436;31;7;132;2806;4;170;450;24;8;141;2829;4;175;441;24;9;77;1503;4;103;448;21
09.10.19;14:20:00;1;202;4127;0;2;128;2650;4;158;359;21;3;74;1638;4;108;454;23;4;82;2262;3;85;200;23;5;295;5529;4;130;118;359;569;31;6;201;4110;4;101;96;456;436;31;7;105;2795;4;146;430;24;8;114;2817;4;144;391;24;9;31;1496;4;42;498;20
09.10.19;14:15:00;1;202;4110;0;2;167;2639;4;198;361;22;3;97;1631;4;134;478;23;4;124;2255;3;129;213;23;5;398;5504;4;184;166;379;587;32;6;279;4093;4;146;150;489;483;31;7;152;2786;4;189;442;24;8;155;2808;4;194;425;24;9;71;1493;6;93;501;21
09.10.19;14:10:00;1;308;4092;0;2;223;2625;4;256;368;22;3;135;1623;4;171;482;24;4;184;2245;5;192;225;23;5;524;5470;4;250;223;390;614;32;6;392;4069;4;194;198;558;539;31;7;234;2774;4;272;446;24;8;236;2795;4;274;447;24;9;122;1488;4;155;492;21
09.10.19;14:05:00;1;266;4066;0;2;380;2606;4;419;385;22;3;231;1612;4;275;496;24;4;320;2230;5;333;231;23;5;791;5426;4;393;335;403;621;32;6;593;4036;4;305;302;571;555;31;7;342;2754;4;389;456;24;8;347;2775;4;388;457;24;9;188;1478;4;217;501;21